Flag for U.S.A. Weather past 2 weeks in Miami, Florida, U.S.A.

Now
85 °F

More clouds than sun.


Feels Like: 92 °F
Forecast: 78 / 86 °F
Wind: 8 mph from Southeast

Location: Miami International Airport

Current Time: Apr 28, 2015 at 10:31:06 AM

Latest Report: Apr 28, 2015 at 9:53 AM


Visibility: 10 mi

Pressure: 29.81 "Hg

Humidity: 70%

Dew point: 74 °F

Location of MiamiLocation

Historic Weather in Miami — Graph

°F

Miami temperature yesterday

Maximum temperature yesterday: 92 °F (at 12:53 PM)
Minimum temperature yesterday: 78 °F (at 4:53 AM)
Average temperature yesterday: 83 °F

Past Weeks' High & Low Weather Summary

 TemperatureHumidityPressure
High96 °F (Apr 26, 1:53 PM)94% (Apr 23, 5:53 PM)30.17 "Hg (Apr 23, 5:53 PM)
Low75 °F (Apr 21, 8:53 AM)41% (Apr 26, 1:53 PM)29.75 "Hg (Apr 27, 5:53 PM)
Average81 °F71%29.97 "Hg
* Reported Apr 13 8:53 AM — Apr 28 8:53 AM, Miami, Weather by CustomWeather, © 2015

Note: Actual official high and low records may vary slightly from our data, if they occured in-between our weather recording intervals... More about our weather records

Advertising

Miami weather history for previous 24 hours

 ConditionsComfort  
Time TempWeatherWind HumidityBarometerVisibility
8:53 AM
Tue, Apr 28
83 °FOvercast.10 mph77%29.80 "Hg10 mi
7:53 AM81 °FOvercast.8 mph79%29.80 "Hg10 mi
6:53 AM79 °FMostly cloudy.5 mph79%29.79 "Hg9 mi
5:53 AM79 °FPartly cloudy.7 mph79%29.79 "Hg10 mi
4:53 AM80 °FPassing clouds.6 mph76%29.79 "Hg10 mi
3:53 AM79 °FMostly cloudy.5 mph79%29.80 "Hg10 mi
2:53 AM78 °FPassing clouds.9 mph82%29.80 "Hg10 mi
1:53 AM79 °FMostly cloudy.8 mph79%29.83 "Hg9 mi
12:53 AM78 °FPartly cloudy.6 mph84%29.85 "Hg10 mi
11:53 PM
Mon, Apr 27
78 °FPartly cloudy.6 mph82%29.86 "Hg10 mi
10:53 PM80 °FPartly cloudy.7 mph71%29.87 "Hg10 mi
9:53 PM82 °FPassing clouds.6 mph72%29.85 "Hg10 mi
8:53 PM81 °FPassing clouds.5 mph69%29.83 "Hg10 mi
7:53 PM81 °FBroken clouds.7 mph62%29.80 "Hg10 mi
6:53 PM85 °FPartly sunny.18 mph75%29.79 "Hg10 mi
5:53 PM86 °FPartly sunny.13 mph75%29.75 "Hg10 mi
4:53 PM88 °FBroken clouds.13 mph63%29.77 "Hg10 mi
3:53 PM88 °FBroken clouds.15 mph63%29.77 "Hg10 mi
2:53 PM88 °FBroken clouds.14 mph59%29.78 "Hg10 mi
1:53 PM92 °FBroken clouds.7 mph49%29.80 "Hg10 mi
12:53 PM92 °FScattered clouds.5 mph51%29.83 "Hg10 mi
11:53 AM90 °FBroken clouds.7 mph56%29.85 "Hg10 mi
10:53 AM88 °FPartly sunny.7 mph59%29.87 "Hg10 mi
Weather by CustomWeather, © 2015

See weather overviewHow to use our weather pages